Flag for Slovenia Weather past 2 weeks in Ljubljana, Slovenia

Now
75 °F

Mild.


Feels Like: 77 °F
Forecast: 61 / 86 °F
Wind: No wind

Location: Ljubljana / Bezigrad

Current Time: Jul 3, 2015 at 1:22:22 AM

Latest Report: Jul 3, 2015 at 12:00 AM


Visibility: N/A

Pressure: 30.21 "Hg

Humidity: 66%

Dew point: 63 °F

Location of LjubljanaLocation

Historic Weather in Ljubljana — Graph

°F

Ljubljana temperature yesterday

Maximum temperature yesterday: 90 °F (at 5:00 PM)
Minimum temperature yesterday: 64 °F (at 6:00 AM)
Average temperature yesterday: 77 °F

Past Weeks' High & Low Weather Summary

 TemperatureHumidityPressure
High90 °F (Jul 2, 5:00 PM)100% (Jun 23, 8:00 PM)30.29 "Hg (Jun 23, 8:00 PM)
Low48 °F (Jun 25, 6:00 AM)34% (Jun 25, 5:00 PM)29.77 "Hg (Jun 23, 9:00 AM)
Average65 °F70%30.07 "Hg
* Reported Midnight between Jun 17 and Jun 18 — Jul 2 11:00 PM, Ljubljana, Weather by CustomWeather, © 2015

Note: Actual official high and low records may vary slightly from our data, if they occured in-between our weather recording intervals... More about our weather records

Advertising

Ljubljana weather history for previous 24 hours

 ConditionsComfort  
Time TempWeatherWind HumidityBarometerVisibility
11:00 PM
Thu, Jul 2
77 °FWarm.No wind65%30.21 "HgN/A
10:00 PM79 °FOvercast.No wind58%30.21 "Hg16 mi
9:00 PM81 °FOvercast.1 mph51%30.17 "Hg16 mi
8:00 PM83 °FOvercast.1 mph52%30.15 "Hg16 mi
7:00 PM85 °FWarm.2 mph47%30.13 "HgN/A
6:00 PM88 °FHot.2 mph43%30.11 "HgN/A
5:00 PM90 °FHot.2 mph39%30.09 "HgN/A
4:00 PM89 °FHot.2 mph39%30.10 "HgN/A
3:00 PM89 °FPassing clouds.1 mph42%30.11 "Hg25 mi
2:00 PM87 °FPassing clouds.1 mph38%30.12 "Hg25 mi
1:00 PM86 °FPassing clouds.1 mph39%30.13 "Hg25 mi
12:00 PM84 °FPassing clouds.1 mph42%30.15 "Hg25 mi
11:00 AM79 °FWarm.1 mph50%30.17 "HgN/A
9:00 AM72 °FSunny.No wind67%30.20 "Hg19 mi
8:00 AM69 °FSunny.No wind75%30.21 "Hg19 mi
7:00 AM67 °FSunny.No wind80%30.21 "Hg19 mi
6:00 AM64 °FPassing clouds.No wind90%30.21 "Hg19 mi
5:00 AM64 °FMild.No wind88%30.21 "HgN/A
4:00 AM65 °FMild.No wind88%30.20 "HgN/A
3:00 AM66 °FMild.No wind85%30.20 "HgN/A
2:00 AM67 °FMild.No wind80%30.19 "HgN/A
1:00 AM69 °FMild.No wind75%30.19 "HgN/A
Weather by CustomWeather, © 2015

See weather overviewHow to use our weather pages